CZ-6A DEB, 55883

Orbit data source: Space-Track

CZ-6A DEB, 55883 is space debris in SSO originally from a launch on Fri, 11 Nov 2022 UTC launched from the Taiyaun Space Center, China (TSC). Debris objects in space refer to the collection of defunct objects orbiting the Earth. Examples of debris include non-operational satellites, rocket bodies, and fragments generated from explosions, collisions, or faulty payload assembly.

Loading next visibility...
Identifier
55883, 2022-151AAF
Orbit
SSO
Country
Flag of CNCN / PRC
Related business
Manufacturer
SAST
Mission
Spacecraft
Bus & Motor
Unknown
Mass
Unknown
Launch date (UTC)
2022-11-11 (3 years ago)
Launch vehicle
Unknown
Launch site
Taiyaun Space Center, China (TSC)
Object type
Payload
Rocket body
Debris
Shape & HBR
Unknown shape, 0.1 m
Radar Cross Section
Small (<0.1 m²)

Expand to show TLE details & history
Last TLE update: 7 hours ago

TLE from 7 hours ago
0 CZ-6A DEB
1 55883U 22151AAF 26130.49350711  .00002239  00000-0  36717-3 0  9995
2 55883  98.6724 218.6056 0117359 355.5291   4.4853 14.67372307173107
Epoch: 2026-05-10T11:50Z
TLE epoch observation values (Epoch: 2026-05-10T11:50:39.014Z)
Latitude
Longitude
172.64725°
Altitude
589.982 km
Speed
7.609 km/s
True Right ascension
14h 34m 25s
True Declination
0° 00' 00"
Sunlit
Object was in full shadow at epoch
Visualization orbit readout
Latitude
Unknown
Longitude
Unknown
Altitude
Unknown
Speed
Unknown
Apparent Right ascension
Unknown
Apparent Declination
Unknown
Sunlit
N/A
Visualization observer readout
Local Sidereal Time
02:47:51
Azimuth
Unknown
Elevation
Unknown
Doppler factor
Unknown
Orbital elements
Apogee altitude
749.238 km
Perigee altitude
583.886 km
Semi-major axis
7,044.699 km
Eccentricity
0.01174
Inclination
98.6724°
RAAN
218.6056°
Arg. of periapsis
355.5291°
True anomaly
4.59203°
Mean anomaly
4.4853°
Eccentric anomaly
4.53851°
Mean motion
3.6707 °/min
Orbital period
98.07 mins
BSTAR
0.00036717
Loading maneuver chart data...
Computing Atmospheric mass density...
Loading historical data...
Loading historical data...
Loading historical data...
Loading historical data...
Loading historical data...
Loading historical data...
Loading historical data...

Documentation

Showing up to 5 results
|